WB0RXX Weather Reports


Display with metric or nautical units.
time (UTC)temp
F
wind
direction
speed
MPH
gust
MPH
rain 1hr
in
rain 24hr
in
rain mn
in
humidity
%
barometer
mb
20260902034003 70 13 1.0 2.0 0.00 0.00 0.00 90 1013.7
20260902033005 71 47 1.0 2.0 0.00 0.00 0.00 90 1013.7
20260902031003 71 47 0.0 0.0 0.00 0.00 0.00 88 1014.2
20260902023003 73 47 0.0 1.0 0.00 0.00 0.00 84 1013.3
20260902022005 72 47 0.0 0.0 0.00 0.00 0.00 84 1013.4
20260902014005 73 22 0.0 0.0 0.00 0.00 0.00 86 1013.7
20260902012003 74 22 0.0 0.0 0.00 0.00 0.00 83 1013.6
20260902011003 74 22 0.0 0.0 0.00 0.00 0.00 81 1013.2
20260902005005 74 22 0.0 0.0 0.00 0.00 0.00 81 1013.1
20260902003003 75 22 0.0 0.0 0.00 0.00 0.00 83 1013.8
20260902000004 77 22 0.0 0.0 0.00 0.00 0.00 74 1013.7
20260901231002 78 22 0.0 0.0 0.00 0.00 0.00 67 1013.7
20260901222003 80 21 1.0 1.0 0.00 0.00 0.00 57 1013.8
20260901221004 81 349 0.0 0.0 0.00 0.00 0.00 54 1014.2
20260901212004 81 8 2.0 4.0 0.00 0.00 0.00 57 1014.2
20260901205005 80 337 0.0 0.0 0.00 0.00 0.00 59 1014.4
20260901203005 80 133 0.0 0.0 0.00 0.00 0.00 57 1013.9
20260901200004 81 72 0.0 0.0 0.00 0.00 0.00 54 1014.6
20260901193004 81 38 2.0 5.0 0.00 0.00 0.00 55 1014.4
20260901182005 81 101 0.0 0.0 0.00 0.00 0.00 55 1014.9
20260901174006 80 18 2.0 5.0 0.00 0.00 0.00 55 1015.0
20260901170003 80 140 0.0 0.0 0.00 0.00 0.00 55 1015.4
20260901145004 70 14 2.0 7.0 0.00 0.00 0.00 78 1015.4
20260901141003 69 9 0.0 0.0 0.00 0.00 0.00 81 1015.8
20260901134002 66 9 0.0 0.0 0.00 0.00 0.00 89 1015.7
20260901125004 59 9 0.0 0.0 0.00 0.00 0.00 95 1015.5
20260901123003 59 9 0.0 0.0 0.00 0.00 0.00 95 1015.4
20260901122003 60 9 0.0 0.0 0.00 0.00 0.00 96 1015.2
20260901114005 60 9 0.0 0.0 0.00 0.00 0.00 96 1014.6
20260901113003 60 9 0.0 0.0 0.00 0.00 0.00 96 1014.6
20260901110005 61 9 0.0 0.0 0.00 0.00 0.00 95 1014.4
20260901105004 61 9 0.0 0.0 0.00 0.00 0.00 96 1014.4
20260901103004 60 9 0.0 0.0 0.00 0.00 0.00 95 1014.5
20260901095005 60 9 0.0 0.0 0.00 0.00 0.00 94 1014.3
20260901091005 61 9 0.0 0.0 0.00 0.00 0.00 91 1013.9
20260901085005 64 9 0.0 0.0 0.00 0.00 0.00 92 1013.7
20260901083006 64 9 1.0 2.0 0.00 0.00 0.00 92 1013.7
20260901081006 64 9 0.0 0.0 0.00 0.00 0.00 91 1013.8
20260901073005 64 9 0.0 0.0 0.00 0.00 0.00 89 1013.7
20260901064003 64 9 2.0 3.0 0.00 0.00 0.00 90 1014.2
20260901063004 65 9 0.0 0.0 0.00 0.00 0.00 89 1014.2
20260901051004 69 9 0.0 0.0 0.00 0.00 0.00 85 1014.4
20260901043005 70 9 0.0 0.0 0.00 0.00 0.00 85 1014.1